FW6705 Weather Reports


Display with metric or nautical units.
time (UTC)temp
F
wind
direction
speed
MPH
gust
MPH
rain 1hr
in
rain 24hr
in
rain mn
in
humidity
%
barometer
mb
20260504050017 54 0.0 2.0 0.00 0.04 0.04 77 1005.6
20260504043016 55 0.0 2.0 0.00 0.04 0.04 75 1005.6
20260504040015 57 0.0 3.0 0.00 0.04 0.04 71 1005.4
20260504033015 59 0.0 3.0 0.00 0.04 0.04 68 1005.5
20260504030016 61 0.0 4.0 0.00 0.04 0.04 64 1005.4
20260504023015 62 0.0 4.0 0.00 0.04 0.04 62 1005.2
20260504020016 61 0.0 3.0 0.00 0.04 0.04 62 1005.1
20260504013057 62 0.0 0.0 0.00 0.04 0.04 61 1004.9
20260504010015 65 0.0 0.0 0.00 0.04 0.04 55 1004.9
20260504003017 68 270 1.0 5.0 0.00 0.04 0.04 49 1004.8
20260504000057 69 248 2.0 8.0 0.00 0.04 0.04 46 1004.9
20260503233017 70 293 3.0 11.0 0.00 0.04 0.04 46 1005.1
20260503230017 70 248 3.0 11.0 0.00 0.04 0.04 45 1005.4
20260503223057 71 248 4.0 15.0 0.00 0.04 0.04 44 1005.7
20260503220017 72 270 4.0 10.0 0.00 0.04 0.04 47 1005.7
20260503213016 70 225 5.0 13.0 0.00 0.04 0.04 47 1005.8
20260503210017 69 270 5.0 13.0 0.00 0.04 0.04 48 1006.1
20260503203018 68 248 5.0 17.0 0.00 0.04 0.04 48 1006.7
20260503200017 67 225 6.0 18.0 0.00 0.04 0.04 50 1006.9
20260503193018 66 248 6.0 21.0 0.00 0.04 0.04 51 1007.5
20260503190056 65 248 6.0 21.0 0.00 0.04 0.04 50 1008.0
20260503183016 62 225 6.0 19.0 0.00 0.04 0.04 60 1008.5
20260503180017 62 203 6.0 23.0 0.00 0.04 0.04 58 1008.7
20260503173056 61 203 6.0 18.0 0.00 0.04 0.04 57 1008.7
20260503053057 48 158 1.0 4.0 0.00 0.00 0.00 57 1014.8